Flag for Nigeria

Past Weather in Lagos, Nigeria — Yesterday and Last 2 Weeks

Now
82 °F

Partly sunny.


Feels Like: 88 °F
Forecast: 82 / 72 °F
Wind: 9 mph from West

Location: Lagos / Ikeja

Current Time: Jul 14, 2020 at 12:11:16 pm

Latest Report: Jul 14, 2020 at 11:00 am


Visibility: N/A

Pressure: 29.95 "Hg

Humidity: 74%

Dew Point: 73 °F

Location of LagosLocation

Past Weather in Lagos — Graph

°F

Lagos Temperature Yesterday

Maximum temperature yesterday: 84 °F (at 1:00 pm)
Minimum temperature yesterday: 75 °F (at 2:00 am)
Average temperature yesterday: 79 °F

High & Low Weather Summary for the Past Weeks

 TemperatureHumidityPressure
High88 °F (Jul 2, 1:00 pm)100% (Jun 30, 4:00 am)30.01 "Hg (Jun 30, 4:00 am)
Low73 °F (Jun 30, 4:00 am)66% (Jul 1, 2:00 pm)29.83 "Hg (Jul 2, 5:00 pm)
Average78 °F90%29.92 "Hg
* Reported Jun 29 11:00 am — Jul 14 11:00 am, Lagos. Weather by CustomWeather, © 2020

Note: Actual official high and low records may vary slightly from our data, if they occured in-between our weather recording intervals... More about our weather records

Lagos Weather History for the Previous 24 Hours

Scroll right to see more
 ConditionsComfort  
Time TempWeatherWind HumidityBarometerVisibility
11:00 am
Tue, Jul 14
82 °FPartly sunny.9 mph74%29.95 "HgN/A
10:00 am81 °FPartly sunny.8 mph79%29.95 "HgN/A
9:00 am79 °FScattered clouds.12 mph89%29.95 "Hg5 mi
8:00 am75 °FPassing clouds.3 mph94%29.95 "Hg5 mi
7:00 am75 °FPassing clouds.6 mph94%29.95 "HgN/A
6:00 am75 °FPassing clouds.6 mph94%29.92 "HgN/A
5:00 am75 °FPassing clouds.5 mph94%29.92 "HgN/A
4:00 am75 °FPassing clouds.3 mph94%29.92 "HgN/A
3:00 am75 °FPassing clouds.3 mph94%29.92 "HgN/A
2:00 am75 °FPassing clouds.5 mph94%29.95 "HgN/A
12:00 am77 °FPassing clouds.5 mph89%29.95 "HgN/A
11:00 pm
Mon, Jul 13
77 °FPassing clouds.3 mph89%29.95 "HgN/A
10:00 pm77 °FPassing clouds.6 mph89%29.95 "HgN/A
9:00 pm77 °FPassing clouds.3 mph89%29.92 "HgN/A
8:00 pm77 °FPassing clouds.6 mph89%29.89 "HgN/A
7:00 pm79 °FPassing clouds.8 mph84%29.89 "HgN/A
5:00 pm82 °FPartly sunny.7 mph74%29.89 "HgN/A
4:00 pm84 °FPartly sunny.8 mph70%29.89 "HgN/A
3:00 pm82 °FPartly sunny.9 mph79%29.89 "HgN/A
2:00 pm82 °FPartly sunny.8 mph79%29.92 "HgN/A
1:00 pm84 °FPartly sunny.5 mph74%29.95 "HgN/A
12:00 pm82 °FPartly sunny.9 mph79%29.95 "HgN/A
Weather by CustomWeather, © 2020

See weather overview